Marshfield, WI

3:40 PM CST on November 17, 2017 (GMT -0600)
Marshfield Municipal

Weather History for KMFI - October, 2013

Change the Weather History Date:

Sunday, October 20, 2013

  Actual Average Record
Temperature  
Mean Temperature 36 °F -  
Max Temperature 43 °F 57 °F 82 °F (1953)
Min Temperature 30 °F 32 °F 15 °F (1952)
Degree Days  
Heating Degree Days 28    
Moisture  
Dew Point 35 °F    
Average Humidity 92    
Maximum Humidity 100    
Minimum Humidity 81    
Precipitation  
Precipitation 0.00 in - - ()
Sea Level Pressure  
Sea Level Pressure 29.74 in    
Wind  
Wind Speed 6 mph (South)    
Max Wind Speed 18 mph    
Max Gust Speed 29 mph    
Visibility 5 miles    
Events Fog , Rain    
Averages and records for this station are not official NWS values.
T = Trace of Precipitation, MM = Missing Value Source: NWS Daily Summary

Daily Weather History Graph

Daily Weather History Graph

Search for Another Location

Airport or City:

Trip Planner

Search our weather history database for the weather conditions in past years. The results will help you decide how hot, cold, wet, or windy it might be!

Date:

Astronomy

Oct. 20, 2013 Rise Set
Actual Time 7:22 AM CDT 6:07 PM CDT
Civil Twilight 6:53 AM CDT 6:37 PM CDT
Nautical Twilight 6:19 AM CDT 7:10 PM CDT
Astronomical Twilight 5:45 AM CDT 7:44 PM CDT
Moon 7:11 PM CDT (10/20) 9:04 AM CDT (10/20)
Length of Visible Light 11h 43m
Length of Day
10h 44m
Full, 97% of the Moon is Illuminated
Oct 20
Full
Oct 26
Last Quarter
Nov 3
New
Nov 9
First Quarter
Nov 17
Full

Hourly Weather History & Observations

Time (CDT) Temp. Windchill Dew Point Humidity Pressure Visibility Wind Dir Wind Speed Gust Speed Precip Events Conditions
12:54 AM 33.1 °F 28.7 °F 30.9 °F 92% 29.79 in 9.0 mi WSW 4.6 mph - N/A   Clear
1:54 AM 34.0 °F 28.0 °F 32.0 °F 92% 29.79 in 3.0 mi West 6.9 mph - N/A   Mostly Cloudy
1:59 AM 33.8 °F 27.7 °F 32.0 °F 93% 29.76 in 1.8 mi West 6.9 mph - N/A   Mostly Cloudy
2:06 AM 33.8 °F 27.7 °F 32.0 °F 93% 29.77 in 0.8 mi West 6.9 mph - N/A   Overcast
2:54 AM 34.0 °F 28.0 °F 33.1 °F 96% 29.80 in 0.5 mi NW 6.9 mph - N/A Fog Fog
3:54 AM 32.0 °F 27.5 °F 30.9 °F 96% 29.79 in 0.2 mi NW 4.6 mph - N/A Fog Fog
4:54 AM 32.0 °F - 32.0 °F 100% 29.80 in 0.2 mi Calm Calm - N/A Fog Fog
5:54 AM 30.9 °F - 28.9 °F 92% 29.81 in 0.2 mi Calm Calm - N/A Fog Light Freezing Fog
6:54 AM 30.0 °F - 30.0 °F 100% 29.82 in 0.2 mi Calm Calm - N/A Fog Light Freezing Fog
7:54 AM 30.9 °F 27.5 °F 30.0 °F 96% 29.83 in 0.2 mi South 3.5 mph - N/A Fog Light Freezing Fog
8:54 AM 32.0 °F 27.5 °F 30.9 °F 96% 29.83 in 0.5 mi SE 4.6 mph - N/A Fog Fog
9:04 AM 32.0 °F 28.7 °F 30.2 °F 93% 29.79 in 1.2 mi SE 3.5 mph - N/A   Overcast
9:10 AM 32.0 °F 27.5 °F 30.2 °F 93% 29.79 in 0.8 mi SE 4.6 mph - N/A   Overcast
9:46 AM 33.8 °F 27.7 °F 32.0 °F 93% 29.78 in 1.2 mi SSE 6.9 mph - N/A   Overcast
9:54 AM 33.1 °F 26.9 °F 32.0 °F 96% 29.82 in 1.8 mi SE 6.9 mph - N/A   Overcast
10:05 AM 33.8 °F 27.7 °F 33.8 °F 100% 29.78 in 0.8 mi ESE 6.9 mph - N/A   Overcast
10:16 AM 33.8 °F 28.6 °F 33.8 °F 100% 29.78 in 1.2 mi SE 5.8 mph - N/A   Overcast
10:21 AM 35.6 °F 29.9 °F 33.8 °F 93% 29.77 in 3.0 mi SE 6.9 mph - N/A   Overcast
10:54 AM 37.0 °F 31.0 °F 36.0 °F 96% 29.81 in 10.0 mi SE 8.1 mph - N/A   Overcast
11:40 AM 39.2 °F 34.2 °F 35.6 °F 87% 29.76 in 10.0 mi SSE 6.9 mph - N/A   Overcast
11:54 AM 39.0 °F 32.8 °F 36.0 °F 89% 29.80 in 10.0 mi SSE 9.2 mph - N/A   Overcast
12:54 PM 39.0 °F 32.3 °F 36.0 °F 89% 29.77 in 5.0 mi SSE 10.4 mph - 0.00 in Rain Light Rain
1:22 PM 39.2 °F 33.0 °F 37.4 °F 93% 29.71 in 5.0 mi SE 9.2 mph - 0.00 in Rain Light Rain
1:54 PM 39.9 °F 33.9 °F 37.0 °F 89% 29.73 in 6.0 mi SE 9.2 mph - 0.00 in Rain Light Rain
2:03 PM 39.2 °F 32.0 °F 37.4 °F 93% 29.69 in 7.0 mi SE 11.5 mph - 0.00 in Rain Light Rain
2:15 PM 39.2 °F 32.5 °F 37.4 °F 93% 29.69 in 5.0 mi SSE 10.4 mph - 0.00 in Rain Light Rain
2:54 PM 39.9 °F 33.9 °F 37.0 °F 89% 29.71 in 10.0 mi SE 9.2 mph - 0.00 in Rain Light Rain
3:16 PM 39.2 °F 33.6 °F 37.4 °F 93% 29.67 in 10.0 mi SE 8.1 mph - 0.00 in Rain Light Rain
3:54 PM 41.0 °F 35.8 °F 37.9 °F 89% 29.70 in 9.0 mi SE 8.1 mph - 0.00 in   Overcast
4:12 PM 41.0 °F 34.3 °F 37.4 °F 87% 29.67 in 9.0 mi SSE 11.5 mph - N/A   Overcast
4:25 PM 41.0 °F 36.4 °F 37.4 °F 87% 29.66 in 9.0 mi SSE 6.9 mph - N/A   Overcast
4:54 PM 41.0 °F 35.8 °F 37.9 °F 89% 29.70 in 8.0 mi SSE 8.1 mph - 0.00 in   Overcast
5:11 PM 41.0 °F 36.4 °F 37.4 °F 87% 29.67 in 7.0 mi SSE 6.9 mph - N/A   Overcast
5:26 PM 41.0 °F 38.0 °F 39.2 °F 93% 29.67 in 7.0 mi South 4.6 mph - N/A   Overcast
5:54 PM 41.0 °F 36.4 °F 39.0 °F 93% 29.70 in 6.0 mi SSE 6.9 mph - N/A   Overcast
6:54 PM 41.0 °F 36.4 °F 39.9 °F 96% 29.69 in 5.0 mi SSE 6.9 mph - N/A   Overcast
7:54 PM 42.1 °F - 41.0 °F 96% 29.69 in 4.0 mi Calm Calm - 0.00 in Rain Light Rain
8:16 PM 42.8 °F 40.1 °F 39.2 °F 87% 29.64 in 4.0 mi South 4.6 mph - 0.00 in Rain Light Rain
8:54 PM 42.1 °F 39.2 °F 39.9 °F 92% 29.67 in 5.0 mi South 4.6 mph - 0.00 in   Overcast
9:31 PM 42.8 °F 41.1 °F 39.2 °F 87% 29.64 in 5.0 mi WSW 3.5 mph - N/A   Overcast
9:41 PM 42.8 °F 38.6 °F 39.2 °F 87% 29.65 in 4.0 mi WSW 6.9 mph - 0.00 in Rain Light Rain
9:54 PM 43.0 °F 37.2 °F 39.9 °F 89% 29.68 in 9.0 mi West 10.4 mph 17.3 mph 0.00 in   Overcast
10:46 PM 42.8 °F 36.6 °F 37.4 °F 81% 29.68 in 10.0 mi WNW 11.5 mph 21.9 mph N/A   Overcast
10:54 PM 42.1 °F 34.5 °F 37.9 °F 85% 29.71 in 10.0 mi WNW 15.0 mph 21.9 mph N/A   Overcast
11:40 PM 39.2 °F 29.8 °F 35.6 °F 87% 29.71 in 10.0 mi WNW 18.4 mph 28.8 mph N/A   Overcast
11:54 PM 37.9 °F 29.6 °F 35.1 °F 89% 29.75 in 10.0 mi WNW 13.8 mph 21.9 mph N/A   Overcast